Home   Weather   Siafa Washington Town   Past weeks
Flag for Liberia

Past Weather in Siafa Washington Town, Liberia — Yesterday and Last 2 Weeks

Now
77 °F

Partly sunny.


Feels Like: 78 °F
Forecast: N/A
Wind: No wind

Location: Roberts Field

Current Time: Jul 4, 2020 at 7:48:48 pm

Latest Report: Jul 4, 2020 at 7:00 pm


Visibility: N/A

Pressure: 29.89 "Hg

Humidity: 94%

Dew Point: 75 °F

Location of Siafa Washington TownLocation

Past Weather in Siafa Washington Town — Graph

°F

Siafa Washington Town Temperature Yesterday

Maximum temperature yesterday: 79 °F (at 10:00 am)
Minimum temperature yesterday: 75 °F (at 12:00 am)
Average temperature yesterday: 77 °F

High & Low Weather Summary for the Past Weeks

 TemperatureHumidityPressure
High91 °F (Jun 21, 1:30 pm)100% (Jun 24, 7:00 am)30.04 "Hg (Jun 24, 7:00 am)
Low75 °F (Jun 21, 7:00 am)66% (Jun 20, 2:00 pm)29.80 "Hg (Jun 23, 6:00 pm)
Average80 °F88%29.90 "Hg
* Reported Jun 19 6:00 pm — Jul 4 6:30 pm, Siafa Washington Town. Weather by CustomWeather, © 2020

Note: Actual official high and low records may vary slightly from our data, if they occured in-between our weather recording intervals... More about our weather records

Siafa Washington Town Weather History for the Previous 24 Hours

Scroll right to see more
 ConditionsComfort  
Time TempWeatherWind HumidityBarometerVisibility
6:30 pm
Sat, Jul 4
77 °FPartly sunny.7 mph94%29.86 "HgN/A
6:00 pm79 °FPartly sunny.7 mph89%29.89 "HgN/A
5:30 pm79 °FPartly sunny.6 mph89%29.89 "Hg6 mi
5:00 pm79 °FPartly sunny.6 mph89%29.89 "Hg5 mi
4:30 pm79 °FLight rain. Partly sunny.6 mph89%29.89 "Hg5 mi
4:00 pm79 °FDrizzle. Broken clouds.7 mph89%29.92 "Hg5 mi
3:30 pm77 °FDrizzle. Partly sunny.6 mph94%29.92 "Hg4 mi
3:00 pm77 °FDrizzle. Partly sunny.8 mph94%29.92 "Hg4 mi
2:00 pm79 °FPartly sunny.8 mph89%29.95 "HgN/A
1:30 pm79 °FPartly sunny.9 mph89%29.95 "HgN/A
1:00 pm77 °FDrizzle. Partly sunny.8 mph94%29.95 "Hg6 mi
12:00 pm77 °FLight rain. Partly sunny.7 mph94%29.98 "Hg4 mi
11:30 am77 °FDrizzle. Partly sunny.3 mph94%29.98 "Hg5 mi
11:00 am77 °FLight rain. Partly sunny.3 mph94%29.98 "Hg5 mi
10:30 am77 °FLight rain. Partly sunny.No wind94%29.98 "Hg4 mi
10:00 am77 °FPartly sunny.No wind94%29.98 "HgN/A
9:30 am77 °FPartly sunny.No wind94%29.98 "HgN/A
9:00 am77 °FPartly sunny.No wind94%29.95 "HgN/A
8:30 am75 °FDrizzle. Partly sunny.No wind94%29.95 "Hg6 mi
8:00 am75 °FDrizzle. Partly sunny.No wind94%29.95 "Hg5 mi
7:30 am75 °FPassing clouds.No wind94%29.92 "Hg4 mi
7:00 am75 °FPassing clouds.No wind94%29.92 "Hg6 mi
6:30 am75 °FPassing clouds.No wind94%29.92 "Hg2 mi
10:00 pm
Fri, Jul 3
75 °FPassing clouds.No wind94%29.95 "Hg4 mi
9:30 pm75 °FPassing clouds.No wind94%29.95 "Hg4 mi
9:00 pm75 °FPassing clouds.No wind94%29.95 "HgN/A
8:30 pm75 °FPassing clouds.No wind94%29.92 "Hg5 mi
8:00 pm75 °FPassing clouds.No wind94%29.92 "Hg4 mi
7:30 pm75 °FDrizzle. Partly sunny.No wind94%29.92 "Hg2 mi
7:00 pm75 °FDrizzle. Partly sunny.6 mph94%29.89 "Hg4 mi
Weather by CustomWeather, © 2020

See weather overview